This demonstration page uses our WeatherBlox Daily Observations layout. Learn more.

Left ArrowRight Arrow

Hourly Observations for July 8, 2022

Temp ( °F °C ) Dew Point ( °F °C ) Humidity (%) Winds ( mph kmh ) Pressure ( in mb ) Visibility ( mi km ) Precip ( " mm )
12:53 am 00:53 Clear 57 13.9 48 8.9 72 72 Calm 30.05 1018 10 16 0.00 0.00
1:53 am 01:53 Clear 52 11.1 46 7.8 80 80 Calm 30.05 1018 10 16 0.00 0.00
2:53 am 02:53 Clear 51 10.6 45 7.2 80 80 Calm 30.06 1018 10 16 0.00 0.00
3:53 am 03:53 Clear 49 9.4 43 6.1 80 80 Calm 30.08 1019 10 16 0.00 0.00
4:53 am 04:53 Clear 47 8.3 43 6.1 86 86 Calm 30.11 1020 10 16 0.00 0.00
5:53 am 05:53 Sunny 46 7.8 42 5.6 86 86 Calm 30.14 1021 10 16 0.00 0.00
6:53 am 06:53 Sunny 52 11.1 46 7.8 80 80 Calm 30.14 1021 10 16 0.00 0.00
7:53 am 07:53 Sunny 61 16.1 48 8.9 63 63 SW 3 6 30.14 1021 10 16 0.00 0.00
8:53 am 08:53 Sunny 72 22.2 48 8.9 43 43 ENE 9 15 30.13 1020 10 16 0.00 0.00
9:53 am 09:53 Sunny 79 26.1 49 9.4 35 35 NE 8 13 30.12 1020 10 16 0.00 0.00
10:53 am 10:53 Sunny 84 28.9 46 7.8 27 27 NE 5 7 30.10 1019 10 16 0.00 0.00
11:53 am 11:53 Sunny 88 31.1 40 4.4 18 18 VRB 5 7 30.10 1019 10 16 0.00 0.00
12:53 pm 12:53 Mostly Cloudy 84 28.9 35 1.7 17 17 W 5 7 30.10 1019 10 16 0.00 0.00
1:53 pm 13:53 Sunny 90 32.2 35 1.7 14 14 SW 10 17 30.08 1019 10 16 0.00 0.00
2:53 pm 14:53 Partly Cloudy 86 30 37 2.8 18 18 WSW 8 13 30.09 1019 10 16 0.00 0.00
3:53 pm 15:53 Sunny 88 31.1 38 3.3 17 17 VRB 6 9 30.08 1019 10 16 0.00 0.00
4:53 pm 16:53 Sunny 90 32.2 38 3.3 16 16 SSW 12 19 30.07 1018 10 16 0.00 0.00
5:53 pm 17:53 Sunny 89 31.7 34 1.1 14 14 SW 7 11 30.06 1018 10 16 0.00 0.00
6:53 pm 18:53 Sunny 87 30.6 37 2.8 17 17 SW 9 15 30.04 1017 10 16 0.00 0.00
7:53 pm 19:53 Sunny 81 27.2 41 5 24 24 S 8 13 30.05 1018 10 16 0.00 0.00
8:53 pm 20:53 Clear 74 23.3 35 1.7 24 24 S 9 15 30.04 1017 10 16 0.00 0.00
9:53 pm 21:53 Clear 70 21.1 38 3.3 31 31 VRB 3 6 30.05 1018 10 16 0.00 0.00
10:53 pm 22:53 Clear 63 17.2 41 5 45 45 E 6 9 30.08 1019 10 16 0.00 0.00
11:53 pm 23:53 Clear 59 15 43 6.1 56 56 ESE 3 6 30.09 1019 10 16 0.00 0.00

Powered by AerisWeather